GSE Systems EBITDA Margin 2010-2024 | GVP

Current and historical EBITDA (Earnings Before Interest, Taxes, Depreciation and Amortization) margin for GSE Systems (GVP) over the last 10 years. The current EBITDA margin for GSE Systems as of March 31, 2024 is .
GSE Systems EBITDA Margin Historical Data
Date TTM Revenue TTM EBITDA EBITDA Margin
2024-03-31 $0.05B $-0.00B -2.22%
2023-12-31 $0.05B $-0.00B -4.44%
2023-09-30 $0.05B $-0.00B -4.35%
2023-06-30 $0.05B $-0.00B -6.52%
2023-03-31 $0.05B $-0.00B -8.51%
2022-12-31 $0.05B $-0.00B -8.33%
2022-09-30 $0.05B $-0.01B -9.80%
2022-06-30 $0.05B $-0.00B -7.41%
2022-03-31 $0.06B $-0.00B -7.27%
2021-12-31 $0.06B $-0.00B -7.14%
2021-09-30 $0.06B $-0.00B -7.27%
2021-06-30 $0.05B $-0.00B -7.55%
2021-03-31 $0.05B $-0.00B -7.55%
2020-12-31 $0.06B $-0.01B -12.07%
2020-09-30 $0.06B $-0.00B -1.61%
2020-06-30 $0.07B $-0.00B -1.45%
2020-03-31 $0.08B $0.00B 1.28%
2019-12-31 $0.08B $0.00B 1.22%
2019-09-30 $0.09B $-0.00B -1.14%
2019-06-30 $0.09B 0 0.00%
2019-03-31 $0.09B 0 0.00%
2018-12-31 $0.09B $0.00B 4.30%
2018-09-30 $0.09B $0.00B 2.17%
2018-06-30 $0.09B $0.00B 1.18%
2018-03-31 $0.08B $0.00B 1.30%
2017-12-31 $0.07B $0.00B 2.86%
2017-09-30 $0.06B $0.00B 3.28%
2017-06-30 $0.06B $0.00B 5.00%
2017-03-31 $0.06B $0.00B 5.45%
2016-12-31 $0.05B $0.00B 5.77%
2016-09-30 $0.05B $0.00B 5.66%
2016-06-30 $0.05B $-0.00B -1.85%
2016-03-31 $0.06B $-0.00B -5.36%
2015-12-31 $0.06B $-0.00B -5.26%
2015-09-30 $0.06B $-0.01B -8.93%
2015-06-30 $0.05B $-0.00B -8.16%
2015-03-31 $0.04B $-0.01B -11.63%
2014-12-31 $0.04B $-0.01B -18.42%
2014-09-30 $0.04B $-0.01B -16.22%
2014-06-30 $0.04B $-0.01B -12.20%
2014-03-31 $0.04B $-0.01B -13.64%
2013-12-31 $0.05B $-0.01B -10.64%
2013-09-30 $0.05B $-0.01B -10.42%
2013-06-30 $0.05B $-0.00B -4.08%
2013-03-31 $0.05B $0.00B 3.92%
2012-12-31 $0.05B $0.00B 7.69%
2012-09-30 $0.05B $0.01B 11.11%
2012-06-30 $0.05B $0.01B 11.11%
2012-03-31 $0.05B $0.01B 11.54%
2011-12-31 $0.05B $0.01B 9.80%
2011-09-30 $0.05B $0.00B 4.17%
2011-06-30 $0.05B 0 0.00%
2011-03-31 $0.05B 0 0.00%
2010-12-31 $0.05B $0.00B 2.13%
2010-09-30 $0.05B $0.00B 2.17%
2010-06-30 $0.04B $0.00B 4.55%
2010-03-31 $0.04B $0.00B 4.65%
2009-12-31 $0.04B $0.00B 5.00%
Sector Industry Market Cap Revenue
Computer and Technology Computer Software $0.011B $0.045B
GSE Systems, Inc. develops and delivers business and technology solutions by applying process control and simulation software, systems and services to the pharmaceutical and chemical research & development, energy, process and manufacturing industries worldwide. The company's products are used in the following industries: specialty chemical, food and beverage, petroleum refining, pharmaceutical, fossil and nuclear power generation, metals and water treatment. (PRESS RELEASE)
Stock Name Country Market Cap PE Ratio
Microsoft (MSFT) United States $3173.595B 36.97
Oracle (ORCL) United States $341.061B 27.76
Salesforce (CRM) United States $269.656B 45.08
Adobe (ADBE) United States $216.523B 36.20
Intuit (INTU) United States $185.433B 57.69
Synopsys (SNPS) United States $89.411B 61.91
Cadence Design Systems (CDNS) United States $80.195B 76.35
Dassault Systemes SA (DASTY) France $56.522B 36.72
Autodesk (ADSK) United States $46.362B 45.30
ANSYS (ANSS) United States $28.650B 53.02
MicroStrategy (MSTR) United States $27.388B 0.00
PTC (PTC) United States $21.857B 57.97
SS&C Technologies Holdings (SSNC) United States $15.324B 14.51
Manhattan Associates (MANH) United States $13.875B 73.64
Descartes Systems Group (DSGX) Canada $8.441B 73.89
Open Text (OTEX) Canada $8.282B 8.34
Trend Micro (TMICY) Japan $6.479B 46.93
Pegasystems (PEGA) United States $5.156B 45.59
CommVault Systems (CVLT) United States $4.801B 78.46
Blackbaud (BLKB) United States $4.089B 35.20
ACI Worldwide (ACIW) United States $3.740B 17.91
Progress Software (PRGS) United States $2.186B 13.90
Verint Systems (VRNT) United States $1.925B 17.94
Sapiens (SPNS) Israel $1.877B 25.59
BlackBerry (BB) Canada $1.676B 0.00
PROS Holdings (PRO) United States $1.466B 0.00
Simulations Plus (SLP) United States $0.993B 73.04
Rand Worldwide (RWWI) United States $0.647B 0.00
Magic Software Enterprises (MGIC) Israel $0.513B 10.88
American Software (AMSWA) United States $0.359B 30.00
Canaan (CAN) China $0.238B 0.00
OptimizeRx (OPRX) United States $0.225B 0.00
Rigetti Computing (RGTI) United States $0.182B 0.00
Icad Inc (ICAD) United States $0.043B 0.00
Neonode (NEON) Sweden $0.037B 0.00
NetSol Technologies (NTWK) United States $0.030B 0.00
Smith Micro Software (SMSI) United States $0.024B 0.00
Hanryu Holdings (HRYU) South Korea $0.022B 0.00
Wetouch Technology (WETH) $0.021B 0.00
SAP SE (SAP) Germany $0.000B 49.88